When you browse on this site, cookies collect data to enhance your experience and personalize the content and advertising you see.
Visit our Privacy Policy to learn more. By continuing to use the site, you agree to this use of cookies and data.
  • în România
  • Lista ţărilor
  • Pe 7 zile
  • Temperatura apei
  • Hartă satelitară
  • Meteo pe hartă
  • Widget-uri
  • user-avatar
    Intrare

    Meteo pe oră la Seoni Malwa

    Astăzi, 19 Februarie, Marţi

    Timp Temperatura Precipitaţii Vânt Presiune Umiditate
    00:00 +24°C° 0 mm 2 m/s 730 mmHg 29%
    01:00 +23°C° 0 mm 2 m/s 730 mmHg 29%
    02:00 +23°C° 0 mm 2 m/s 730 mmHg 30%
    03:00 +22°C° 0 mm 1 m/s 730 mmHg 30%
    04:00 +22°C° 0 mm 1 m/s 730 mmHg 31%
    05:00 +19°C° 0 mm 0 m/s 730 mmHg 32%
    06:00 +20°C° 0 mm 0 m/s 731 mmHg 31%
    07:00 +22°C° 0 mm 0 m/s 731 mmHg 30%
    08:00 +23°C° 0 mm 0 m/s 732 mmHg 29%
    09:00 +27°C° 0 mm 1 m/s 732 mmHg 26%
    10:00 +29°C° 0 mm 1 m/s 733 mmHg 22%
    11:00 +32°C° 0 mm 2 m/s 733 mmHg 19%
    12:00 +32°C° 0 mm 2 m/s 732 mmHg 18%
    13:00 +34°C° 0 mm 2 m/s 732 mmHg 17%
    14:00 +35°C° 0 mm 3 m/s 731 mmHg 16%
    15:00 +35°C° 0 mm 2 m/s 731 mmHg 17%
    16:00 +34°C° 0 mm 2 m/s 731 mmHg 19%
    17:00 +34°C° 0 mm 2 m/s 731 mmHg 20%
    18:00 +31°C° 0 mm 2 m/s 732 mmHg 21%
    19:00 +29°C° 0 mm 1 m/s 732 mmHg 21%
    20:00 +28°C° 0 mm 1 m/s 733 mmHg 22%
    21:00 +27°C° 0 mm 1 m/s 733 mmHg 22%
    22:00 +26°C° 0 mm 1 m/s 733 mmHg 23%
    23:00 +25°C° 0 mm 1 m/s 733 mmHg 24%

    Mâine, 20 Februarie, Miercuri

    Timp Temperatura Precipitaţii Vânt Presiune Umiditate
    00:00 +25°C° 0 mm 1 m/s 733 mmHg 24%
    01:00 +24°C° 0 mm 1 m/s 733 mmHg 25%
    02:00 +24°C° 0 mm 1 m/s 732 mmHg 26%
    03:00 +23°C° 0 mm 1 m/s 732 mmHg 27%
    04:00 +23°C° 0 mm 2 m/s 732 mmHg 28%
    05:00 +21°C° 0 mm 2 m/s 732 mmHg 29%
    06:00 +23°C° 0 mm 2 m/s 733 mmHg 30%
    07:00 +24°C° 0 mm 1 m/s 733 mmHg 30%
    08:00 +25°C° 0 mm 1 m/s 734 mmHg 31%
    09:00 +28°C° 0 mm 2 m/s 734 mmHg 26%
    10:00 +31°C° 0 mm 2 m/s 734 mmHg 22%
    11:00 +35°C° 0 mm 2 m/s 735 mmHg 18%
    12:00 +36°C° 0 mm 2 m/s 734 mmHg 16%
    13:00 +37°C° 0 mm 2 m/s 733 mmHg 15%
    14:00 +39°C° 0 mm 2 m/s 732 mmHg 14%
    15:00 +37°C° 0 mm 1 m/s 732 mmHg 16%
    16:00 +36°C° 0 mm 1 m/s 732 mmHg 18%
    17:00 +36°C° 0 mm 1 m/s 732 mmHg 20%
    18:00 +34°C° 0 mm 1 m/s 732 mmHg 21%
    19:00 +32°C° 0 mm 2 m/s 733 mmHg 22%
    20:00 +30°C° 0 mm 2 m/s 733 mmHg 23%
    21:00 +29°C° 0.1 mm 2 m/s 734 mmHg 26%
    22:00 +28°C° 0.1 mm 2 m/s 734 mmHg 28%
    23:00 +27°C° 0.1 mm 2 m/s 734 mmHg 31%

    Poimâine, 21 Februarie, Joi

    Timp Temperatura Precipitaţii Vânt Presiune Umiditate
    00:00 +27°C° 0.2 mm 2 m/s 734 mmHg 38%
    01:00 +26°C° 0.2 mm 2 m/s 734 mmHg 45%
    02:00 +26°C° 0.2 mm 2 m/s 733 mmHg 52%
    03:00 +26°C° 0.1 mm 2 m/s 733 mmHg 55%
    04:00 +25°C° 0.1 mm 1 m/s 733 mmHg 58%
    05:00 +25°C° 0.1 mm 1 m/s 733 mmHg 60%
    06:00 +26°C° 0 mm 2 m/s 734 mmHg 58%
    07:00 +27°C° 0 mm 2 m/s 735 mmHg 56%
    08:00 +28°C° 0 mm 2 m/s 735 mmHg 54%
    09:00 +31°C° 0 mm 3 m/s 735 mmHg 47%
    10:00 +34°C° 0 mm 4 m/s 735 mmHg 40%
    11:00 +37°C° 0 mm 5 m/s 735 mmHg 33%
    12:00 +39°C° 0 mm 5 m/s 734 mmHg 30%
    13:00 +40°C° 0 mm 4 m/s 734 mmHg 26%
    14:00 +41°C° 0 mm 4 m/s 733 mmHg 23%
    15:00 +40°C° 0 mm 4 m/s 732 mmHg 25%
    16:00 +38°C° 0 mm 3 m/s 732 mmHg 26%
    17:00 +37°C° 0 mm 2 m/s 732 mmHg 28%
    18:00 +35°C° 0 mm 2 m/s 732 mmHg 28%
    19:00 +34°C° 0 mm 2 m/s 733 mmHg 27%
    20:00 +31°C° 0 mm 2 m/s 733 mmHg 27%
    21:00 +30°C° 0 mm 2 m/s 733 mmHg 27%
    22:00 +29°C° 0 mm 2 m/s 734 mmHg 28%
    23:00 +28°C° 0 mm 1 m/s 734 mmHg 28%

    22 Februarie, Vineri

    Timp Temperatura Precipitaţii Vânt Presiune Umiditate
    00:00 +28°C° 0 mm 1 m/s 733 mmHg 30%
    01:00 +27°C° 0 mm 1 m/s 733 mmHg 31%
    02:00 +26°C° 0 mm 1 m/s 733 mmHg 33%
    03:00 +26°C° 0 mm 1 m/s 733 mmHg 34%
    04:00 +26°C° 0 mm 1 m/s 732 mmHg 34%
    05:00 +25°C° 0 mm 1 m/s 732 mmHg 35%
    06:00 +26°C° 0 mm 1 m/s 733 mmHg 34%
    07:00 +27°C° 0 mm 1 m/s 734 mmHg 33%
    08:00 +28°C° 0 mm 2 m/s 735 mmHg 33%
    09:00 +30°C° 0 mm 2 m/s 735 mmHg 29%
    10:00 +32°C° 0 mm 2 m/s 735 mmHg 26%
    11:00 +35°C° 0 mm 2 m/s 735 mmHg 23%
    12:00 +36°C° 0 mm 3 m/s 734 mmHg 22%
    13:00 +37°C° 0 mm 3 m/s 733 mmHg 21%
    14:00 +38°C° 0 mm 4 m/s 732 mmHg 20%
    15:00 +37°C° 0 mm 3 m/s 732 mmHg 22%
    16:00 +36°C° 0 mm 3 m/s 732 mmHg 23%
    17:00 +36°C° 0 mm 2 m/s 731 mmHg 24%
    18:00 +34°C° 0 mm 2 m/s 732 mmHg 26%
    19:00 +32°C° 0 mm 2 m/s 733 mmHg 27%
    20:00 +30°C° 0 mm 1 m/s 733 mmHg 29%
    21:00 +29°C° 0 mm 1 m/s 733 mmHg 31%
    22:00 +29°C° 0 mm 1 m/s 733 mmHg 32%
    23:00 +28°C° 0 mm 1 m/s 733 mmHg 34%

    23 Februarie, Sâmbătă

    Timp Temperatura Precipitaţii Vânt Presiune Umiditate
    00:00 +27°C° 0 mm 1 m/s 733 mmHg 35%
    01:00 +26°C° 0 mm 1 m/s 732 mmHg 37%
    02:00 +25°C° 0 mm 1 m/s 732 mmHg 39%
    03:00 +25°C° 0 mm 2 m/s 732 mmHg 40%
    04:00 +25°C° 0 mm 2 m/s 732 mmHg 41%
    05:00 +24°C° 0 mm 2 m/s 732 mmHg 43%
    06:00 +25°C° 0 mm 2 m/s 732 mmHg 42%
    07:00 +26°C° 0 mm 2 m/s 733 mmHg 41%
    08:00 +26°C° 0 mm 2 m/s 733 mmHg 41%
    09:00 +28°C° 0 mm 2 m/s 733 mmHg 37%
    10:00 +31°C° 0 mm 2 m/s 733 mmHg 33%
    11:00 +33°C° 0 mm 1 m/s 733 mmHg 29%
    12:00 +35°C° 0 mm 2 m/s 732 mmHg 26%
    13:00 +36°C° 0 mm 3 m/s 731 mmHg 23%
    14:00 +37°C° 0 mm 3 m/s 730 mmHg 21%
    15:00 +36°C° 0 mm 3 m/s 730 mmHg 21%
    16:00 +36°C° 0 mm 3 m/s 730 mmHg 22%
    17:00 +35°C° 0 mm 2 m/s 730 mmHg 23%
    18:00 +34°C° 0 mm 2 m/s 730 mmHg 25%
    19:00 +31°C° 0 mm 1 m/s 731 mmHg 26%
    20:00 +29°C° 0 mm 1 m/s 731 mmHg 28%
    21:00 +28°C° 0 mm 1 m/s 731 mmHg 29%
    22:00 +28°C° 0 mm 2 m/s 731 mmHg 30%
    23:00 +27°C° 0 mm 2 m/s 731 mmHg 30%

    24 Februarie, Duminică

    Timp Temperatura Precipitaţii Vânt Presiune Umiditate
    00:00 +26°C° 0 mm 2 m/s 730 mmHg 33%
    01:00 +25°C° 0 mm 2 m/s 730 mmHg 36%
    02:00 +25°C° 0 mm 2 m/s 730 mmHg 39%
    03:00 +24°C° 0 mm 2 m/s 730 mmHg 42%
    04:00 +24°C° 0 mm 2 m/s 730 mmHg 44%
    05:00 +23°C° 0 mm 2 m/s 730 mmHg 47%
    06:00 +24°C° 0 mm 3 m/s 730 mmHg 47%
    07:00 +24°C° 0 mm 3 m/s 731 mmHg 47%
    08:00 +25°C° 0 mm 4 m/s 732 mmHg 47%
    09:00 +27°C° 0 mm 3 m/s 732 mmHg 43%
    10:00 +29°C° 0 mm 3 m/s 732 mmHg 38%
    11:00 +31°C° 0 mm 2 m/s 732 mmHg 34%
    12:00 +33°C° 0 mm 3 m/s 731 mmHg 30%
    13:00 +34°C° 0 mm 3 m/s 730 mmHg 26%
    14:00 +34°C° 0 mm 4 m/s 729 mmHg 22%
    15:00 +34°C° 0 mm 3 m/s 729 mmHg 22%
    16:00 +34°C° 0 mm 3 m/s 729 mmHg 22%
    17:00 +32°C° 0 mm 2 m/s 729 mmHg 22%
    18:00 +31°C° 0 mm 2 m/s 729 mmHg 23%
    19:00 +29°C° 0 mm 2 m/s 730 mmHg 24%
    20:00 +27°C° 0 mm 2 m/s 730 mmHg 24%
    21:00 +26°C° 0 mm 2 m/s 730 mmHg 25%
    22:00 +25°C° 0 mm 2 m/s 730 mmHg 25%
    23:00 +24°C° 0 mm 2 m/s 730 mmHg 26%
    Arată mai mult